Location: Canet
(43.3261°N, 5.3723°E)
Time: 18:52:44
(UTC+00:00)

SeaSat 1 - Pass Details

Date: 24 January 2021
Orbit: 744 x 747 km, 108.0° (Epoch: 03 March)

Event Time Altitude Azimuth Distance (km) Brightness Sun altitude
Rises 17:02:35 0° 17° (NNE) 3,199 5.3 -4.6°
Reaches altitude 10° 17:05:07 10° 6° (N) 2,272 4.7 -5.0°
Maximum altitude 17:09:16 28° 309° (NW) 1,388 4.2 -5.7°
Drops below altitude 10° 17:13:24 10° 252° (WSW) 2,262 6.8 -6.4°
Sets 17:15:55 0° 240° (WSW) 3,183 7.9 -6.9°
